Regional Weather Roundup
Issued by NWS Boston, MA

Home | Current Version | Previous Version | Text Only | Print | Product List | Glossary On
Versions: 1 2 3 4 5 6 7 8 9 10 11 12 13 14 15 16 17 18 19 20 21 22 23 24 25 26 27
000
ASUS41 KBOX 290410
RWRBOX

REGIONAL WEATHER ROUNDUP
NATIONAL WEATHER SERVICE TAUNTON MA
1200 AM EDT FRI APR 29 2016

NOTE:  "FAIR" INDICATES FEW OR NO CLOUDS BELOW 12,000 FEET WITH NO
SIGNIFICANT WEATHER AND/OR OBSTRUCTIONS TO VISIBILITY.  THE FOLLOWING
OBSERVATION LOCATIONS DO NOT REPORT PRESENT WEATHER...PROVINCETOWN...
SMITHFIELD...BLOCK ISLAND...KEENE...AND OXFORD.

MAZALL-290500-
EASTERN MASSACHUSETTS

CITY           SKY/WX    TMP DP  RH WIND       PRES   REMARKS
BOSTON         CLOUDY    46  34  62 S9        30.11R
BEVERLY        CLOUDY    45  33  63 S7        30.10S
LAWRENCE       CLOUDY    46  32  58 CALM      30.11S
BEDFORD        MOCLDY    46  33  60 S7        30.09R
BLUE HILL        N/A     43  33  68 SE7       30.08R
NORWOOD        CLOUDY    46  34  62 S6        30.10S
MARSHFIELD     CLOUDY    46  34  61 S5        30.13R
PLYMOUTH       CLOUDY    44  34  67 SE3       30.11S
TAUNTON        CLOUDY    47  33  58 SE3       30.10S
NEW BEDFORD    CLOUDY    47  32  56 S8        30.10S
$$

MAZALL-290500-
CAPE COD AND THE ISLANDS

CITY           SKY/WX    TMP DP  RH WIND       PRES   REMARKS
FALMOUTH       CLOUDY    43  34  70 SE6       30.11R
HYANNIS        MOCLDY    45  35  68 SE6       30.10S
CHATHAM        CLOUDY    43  34  70 CALM      30.13S
PROVINCETOWN   CLOUDY    44  35  70 S3        30.13S
NANTUCKET      CLOUDY    46  33  60 E6        30.11S
MARTHAS VNYRD  CLOUDY    45  36  70 SE3       30.11R
$$

MAZALL-290500-
CENTRAL AND WESTERN MASSACHUSETTS

CITY           SKY/WX    TMP DP  RH WIND       PRES   REMARKS
WORCESTER      CLOUDY    43  29  57 S3        30.07R
FITCHBURG      CLOUDY    49  30  48 CALM      30.09R
ORANGE         CLOUDY    47  34  60 S5        30.07R
SPRINGFIELD    CLOUDY    48  34  57 S7        30.05S
WESTFIELD      CLOUDY    48  36  63 SE5       30.05S
NORTH ADAMS    MOCLDY    44  27  51 CALM      30.06R
PITTSFIELD     CLOUDY    47  26  44 N5        30.02S
$$

RIZALL-290500-
RHODE ISLAND

CITY           SKY/WX    TMP DP  RH WIND       PRES   REMARKS
PROVIDENCE     CLOUDY    46  34  62 S7        30.10R
NEWPORT        CLOUDY    44  36  73 E3        30.09S
BLOCK ISLAND   CLOUDY    45  36  70 SE7       30.09S
SMITHFIELD       N/A     45  32  61 S3        30.08S
WESTERLY       CLOUDY    47  33  58 E3        30.09F
$$

CTZALL-290500-
CONNECTICUT

CITY           SKY/WX    TMP DP  RH WIND       PRES   REMARKS
BRADLEY INTL   CLOUDY    47  36  65 S13       30.06R
HARTFORD       CLOUDY    48  38  68 S8        30.08R
BRIDGEPORT     CLOUDY    50  37  61 SE7       30.06F
DANBURY        CLOUDY    46  38  73 CALM      30.06F
GROTON         CLOUDY    46  40  79 SE6       30.08F
NEW HAVEN      CLOUDY    48  37  65 SE8       30.06F
CHESTER        CLOUDY    45  41  87 CALM      30.07R
MERIDEN        LGT RAIN  46  40  79 CALM      30.07S
WILLIMANTIC    CLOUDY    47  36  65 S6        30.08S
OXFORD           N/A     45  37  76 S3        30.07R
$$

MEZ002-015-021-024-NHZ003-005-008-011-012-014-VTZ005-008-290500-
NORTHERN NEW ENGLAND

CITY           SKY/WX    TMP DP  RH WIND       PRES   REMARKS
PORTLAND ME    PTCLDY    37  29  72 N5        30.16R
BANGOR ME      PTCLDY    36  13  38 N5        30.19R
CONCORD NH     PTCLDY    40  29  64 NE7       30.11R
MANCHESTER NH  MOCLDY    44  29  55 N5        30.09R
NASHUA NH      MOCLDY    45  31  58 CALM      30.10R
PORTSMOUTH NH  PTCLDY    43  36  78 E6        30.10R
JAFFREY NH     MOCLDY    43  27  53 CALM      30.08R
KEENE NH       CLOUDY    46  27  46 NE7       30.09R
BURLINGTON VT  FAIR      37  15  40 CALM      30.15F
MT. WASHINGTON MOCLDY    18   3  53 SW12        N/A  WCI   5
$$

NYZ052-076-290500-
EASTERN NEW YORK

CITY           SKY/WX    TMP DP  RH WIND       PRES   REMARKS
ALBANY         MOCLDY    41  18  39 N14       30.08S
NEW YORK CITY  CLOUDY    49  38  65 VRB3      30.05F
$$

ANZALL-290500-
MARINE OBSERVATIONS

STATION/POSITION TIME  TEMP    WIND        PRES    VSBY  WAVE
                       AIR SEA DIR/SP/G                  HT/PER
                 (UTC) (F)     (DEG/KT/KT) (MB)    (MI)  (FT/S)
BOSTON BUOY      NOT AVBL
BUZZARDS BAY     0300   44     140/  7/  8 1019.8R
NANTUCKET SOUND  NOT AVBL
MASS BAY-STELLWA 0304   45 45                N/A    1 7/8  3/ 4
ISLE OF SHOALS   0300   44     140/ 14/ 15 1018.9R
S OF BLOCK IS    NOT AVBL
$$

......................KEY.........................
  SKY/WX - SKY CONDITION/PRESENT WEATHER
  TMP    - TEMPERATURE IN FAHRENHEIT
  DWPT   - DEWPOINT IN FAHRENHEIT
  RH     - RELATIVE HUMIDITY IN PERCENT
  WIND   - DIRECTION AND SPEED IN MPH
  PRES   - MEAN SEA LEVEL PRESSURE IN INCHES OF HG
  WCI    - WIND CHILL INDEX
  VSB    - VISIBILITY IN MILES
  HX     - HEAT INDEX
  TC     - TEMPERATURE IN CELSIUS
  VRB    - VARIABLE WIND DIRECTION
  N/A    - NOT AVAILABLE




USA.gov is the U.S. government's official web portal to all federal, state and local government web resources and services.